sat.trackr.live / text

‹ back to catalog

W-SERIES 4

NORAD 64543 · 2025-135R

PAYLOAD ACTIVE UNKNOWN

§ Identity

Operator
Country
US
Launch date
2025-06-23
Launch site
AFWTR
Launch vehicle
Mass (kg)
RCS (m²)

External: N2YO · Heavens-Above · Gunter

§ Orbital elements

Epoch: 2026-05-25T04:26:19.362912Z

Period
92.27 min
Inclination
97.4295°
Eccentricity
0.0340746
Mean motion
15.60693482 rev/d
Perigee alt
155.2 km
Apogee alt
616.1 km
Semi-major
6,763.8 km
B*
6.0328e-4
RAAN
256.4602°
Arg perigee
162.7092°
Mean anomaly
198.6120°
Rev number
5,105

§ Raw data

W-SERIES 41 64543U 25135R   26145.18494633  .01962965  19204-5  60328-3 0  99952 64543  97.4295 256.4602 0340746 162.7092 198.6120 15.60693482 51058

JSON: /api/v1/satellites/64543 · /tle

For live sub-satellite position, see the globe view (requires WebGL).

§ Visibility from observer

Set your observer location to see the next 7 days of passes ≥ 10°. The values pass through the URL so the page stays shareable.

No JS? Fill the form by hand. The geolocation button needs JavaScript.

§ Radio — SatNOGS DB

ModeDescriptionDownlinkUplink
FM S-band telemetry 2.273 GHz

1 transmitter · refreshed weekly from db.satnogs.org